Tracking 30922 objects as of 2-Jul-2025
HD Live streaming from Space Station
objects crossing your sky now

CZ-3 R/B

Track CZ-3 R/B now!
10-day predictions


NORAD ID: 20559
Int'l Code: 1990-030B
Perigee: 205.7 km
Apogee: 10,363.2 km
Inclination: 30.8 °
Period: 208.7 minutes
Semi major axis: 11655 km
RCS: 10.1665 m2 (large)
Launch date: April 7, 1990
Source: People's Republic of China (PRC)
Launch site: Xichang Space Center, China (XSC)

Note: This is a ROCKET BODY
Your satellite tracking list
Your tracking list is empty




NASA's NSSDC Master Catalog

Two Line Element Set (TLE):
1 20559U 90030B   25182.42618466  .00082717  00000-0  10786-2 0  9997
2 20559  30.8233 300.5090 4357387 330.1517  10.8731  6.89933527223634
Source of the keplerian elements: AFSPC